[[{"header":{"parameterUnit":"m.s-1","parameterCategory":1,"la1":30.2991,"la2":30.254,"lo1":-89.0895,"lo2":-89.0444,"dy":0.0017,"dx":0.0017,"nx":28,"ny":28,"refTime":"2025-04-01T21:00:00:Z","depth":0,"parameterNumber":2,"parameterNumberName":"U-component_of_WINDS"},"data":[0,0,0,0,0,0,0,0,0,0,0,0,0,0,0,0,0,0,0,0,0,0,0,0,0,0,0,0,0,0,0,0,0,0,0,0,0,0,0,0,0,0,0,0,0,0,0,0,0,0,0,0,0,0,0,0,0,0,-4.5925,-4.5927,0,-4.6054,-4.6056,-4.6057,-4.6058,-4.6056,-4.6054,-4.6053,-4.6185,-4.619,-4.6195,0,0,0,0,0,0,0,0,0,0,0,0,0,-4.568,-4.5685,-4.5925,-4.5927,-4.5928,-4.6054,-4.6056,-4.6057,-4.6058,-4.6056,-4.6054,-4.6052,-4.6183,-4.6189,-4.6195,0,0,0,0,0,0,0,0,0,0,0,0,0,-4.5796,-4.5686,-4.5925,-4.5944,-4.5947,-4.6054,-4.6056,-4.6058,-4.6058,-4.6056,-4.6053,-4.6051,-4.6181,-4.6189,-4.6196,-4.6293,0,0,-4.6219,-4.6223,0,0,0,0,0,0,0,0,-4.5789,-4.5805,-4.5939,-4.5943,-4.5946,-4.6037,-4.6018,-4.6137,-4.6059,-4.6016,-4.6053,-4.605,-4.6138,-4.6149,-4.6179,-4.6299,-4.6305,-4.622,-4.6225,-4.6228,-4.623,0,0,0,0,0,0,0,-4.5781,-4.5799,-4.5976,-4.5941,-4.5945,-4.5946,-4.596,-4.604,-4.6089,-4.602,-4.602,-4.6035,-4.6139,-4.6171,-4.6182,-4.6307,-4.622,-4.6227,-4.6231,-4.6234,-4.6513,-4.6516,0,0,0,0,0,0,-4.5769,-4.5792,-4.5972,-4.598,-4.586,-4.5953,-4.5968,-4.6011,-4.6088,-4.6098,-4.6037,-4.6035,-4.6159,-4.6173,-4.6186,-4.6304,-4.6228,-4.6235,-4.6239,-4.6511,-4.6514,-4.6517,0,0,0,0,0,0,-4.5764,-4.5785,-4.5967,-4.5886,-4.591,-4.5959,-4.6007,-4.6014,-4.6046,-4.6102,-4.6111,-4.6061,-4.6158,-4.6176,-4.6266,-4.6308,-4.6239,-4.6245,-4.6507,-4.6512,-4.6516,-4.654,0,0,0,0,0,0,-4.5757,-4.5783,-4.582,-4.5887,-4.5914,-4.6044,-4.601,-4.6019,-4.6059,-4.6057,-4.6126,-4.6135,-4.6157,-4.6255,-4.6274,-4.6318,-4.6251,-4.6504,-4.6509,-4.6514,-4.6535,-4.6544,-4.6552,0,0,0,0,0,-4.5748,-4.5822,-4.5822,-4.5843,-4.5961,-4.6047,-4.6062,-4.6086,-4.6063,-4.61,-4.6136,-4.6133,-4.6302,-4.6264,-4.6286,-4.6332,-4.6501,-4.6508,-4.6514,-4.6532,-4.6543,-4.6552,0,0,0,0,0,0,-4.5758,-4.5831,-4.5832,-4.5929,-4.5982,-4.6047,-4.6094,-4.6097,-4.6157,-4.6153,-4.6181,-4.6196,-4.6286,-4.6319,-4.6276,-4.643,-4.6399,-4.6409,-4.6405,-4.6416,-4.6424,-4.6412,-4.6258,0,0,0,0,0,-4.5771,-4.5835,-4.5895,-4.5976,-4.6002,-4.6044,-4.6082,-4.6096,-4.6152,-4.6174,-4.6217,-4.6271,-4.6336,-4.6378,-4.6441,-4.6542,-4.6556,-4.6584,-4.6592,-4.6599,-4.6607,-4.6662,-4.6675,-4.6538,-4.6538,-4.6538,0,0,-4.5799,-4.5847,-4.5885,-4.5979,-4.6021,-4.6086,-4.6062,-4.6132,-4.6181,-4.6185,-4.6272,-4.6306,-4.6369,-4.6464,-4.6509,-4.6494,-4.6649,-4.6607,-4.6612,-4.6617,-4.667,-4.6683,-4.6694,-4.6543,-4.6542,-4.6541,0,0,-4.5883,-4.5927,-4.5998,-4.6041,-4.6106,-4.6134,-4.6151,-4.6216,-4.6238,-4.6327,-4.6332,-4.6391,-4.6503,-4.6547,-4.6584,-4.6687,-4.6686,-4.6708,-4.675,-4.6803,-4.6813,-4.6823,-4.6858,-4.6871,-4.6716,-4.6716,-4.6716,0,-4.591,-4.6008,-4.6034,-4.6104,-4.6145,-4.6153,-4.6225,-4.6266,-4.6348,-4.6376,-4.636,-4.65,-4.6543,-4.6649,-4.6674,-4.6705,-4.6725,-4.6698,-4.681,-4.682,-4.6829,-4.6863,-4.6876,-4.6718,-4.6718,-4.6718,-4.6718,0,-4.6037,-4.6105,-4.6155,-4.6233,-4.6281,-4.6351,-4.6389,-4.6433,-4.6445,-4.6474,-4.6565,-4.6617,-4.6691,-4.6718,-4.6729,-4.6826,-4.6814,-4.6804,-4.6772,-4.6844,-4.6876,-4.6889,-4.6721,-4.672,-4.672,-4.6719,0,0,-4.6127,-4.6221,-4.6239,-4.6274,-4.6348,-4.6401,-4.6473,-4.6545,-4.6582,-4.664,-4.67,-4.6796,-4.6787,-4.6829,-4.6846,-4.6893,-4.697,-4.6877,-4.6879,-4.689,-4.7078,-4.7083,-4.7098,-4.6972,-4.6974,-4.6977,-4.7072,0,-4.6217,-4.6344,-4.637,-4.648,-4.6543,-4.6553,-4.6615,-4.6667,-4.6698,-4.6756,-4.6791,-4.6857,-4.6841,-4.6866,-4.6914,-4.6951,-4.7008,-4.6945,-4.7027,-4.7029,-4.7007,-4.7115,-4.7121,-4.7209,-4.7085,-4.7087,-4.7089,0,-4.6338,-4.6398,-4.6514,-4.6579,-4.6606,-4.6662,-4.673,-4.6787,-4.6846,-4.6865,-4.6914,-4.6926,-4.7002,-4.6969,-4.7073,-4.703,-4.7066,-4.709,-4.7094,-4.7099,-4.7061,-4.7122,-4.7237,-4.7249,-4.7109,-4.7108,-4.7106,0,-4.6389,-4.65,-4.6583,-4.6614,-4.6693,-4.6731,-4.6766,-4.6824,-4.6865,-4.6926,-4.6954,-4.7023,-4.706,-4.7113,-4.7144,-4.7118,-4.7246,-4.7216,-4.7263,-4.7262,-4.7286,-4.7284,-4.7406,-4.7314,-4.7314,-4.7314,-4.7314,0,-4.6485,-4.6555,-4.6607,-4.6658,-4.6737,-4.6768,-4.6845,-4.688,-4.6932,-4.699,-4.7004,-4.7058,-4.7097,-4.7158,-4.7183,-4.7265,-4.7282,-4.7299,-4.7304,-4.7296,-4.7293,-4.7317,-4.7311,-4.7318,-4.7317,-4.7316,-4.7315,0,-4.6554,-4.6592,-4.6683,-4.6751,-4.677,-4.6825,-4.6883,-4.6933,-4.6965,-4.7038,-4.7058,-4.7108,-4.7179,-4.7217,-4.7306,-4.7323,-4.7415,-4.7418,-4.7394,-4.7395,-4.7439,-4.7433,-4.7579,-4.7599,-4.7496,-4.7497,-4.7498,0,-4.6611,-4.6665,-4.6739,-4.6779,-4.6814,-4.6879,-4.6921,-4.6955,-4.7,-4.7073,-4.7114,-4.7187,-4.7246,-4.736,-4.7404,-4.7473,-4.7477,-4.7523,-4.7487,-4.7477,-4.7474,-4.747,-4.7475,-4.7528,-4.7529,-4.753,-4.7531,0,-4.6708,-4.6724,-4.6785,-4.6854,-4.6905,-4.696,-4.7015,-4.7047,-4.709,-4.7139,-4.7213,-4.7259,-4.7351,-4.7422,-4.7495,-4.7531,-4.7538,-4.7542,-4.7556,-4.7547,-4.7529,-4.7537,-4.7408,-4.7538,-4.7537,-4.7537,-4.7536,-4.7536,-4.6771,-4.6819,-4.6879,-4.6947,-4.6992,-4.7043,-4.7093,-4.7132,-4.7193,-4.727,-4.7287,-4.7365,-4.7424,-4.7522,-4.7561,-4.7622,-4.7613,-4.7634,-4.7638,-4.7642,-4.7643,-4.7523,-4.7636,-4.7636,-4.7636,-4.7636,-4.7636,0,-4.6867,-4.6906,-4.6968,-4.7044,-4.7098,-4.7101,-4.7162,-4.7207,-4.7274,-4.733,-4.7388,-4.7473,-4.7543,-4.7594,-4.7665,-4.7704,-4.7709,-4.7721,-4.7717,-4.7725,-4.7649,-4.7628,-4.7716,-4.7716,-4.7716,-4.7716,-4.7716,-4.7716,-4.6922,-4.7003,-4.7027,-4.7131,-4.7171,-4.7246,-4.728,-4.7328,-4.7372,-4.7465,-4.7523,-4.7556,-4.761,-4.7686,-4.775,-4.7764,-4.7788,-4.78,-4.7813,-4.774,-4.7731,-4.7723,-4.7703,-4.7806,-4.7806,-4.7885,-4.7885,-4.7886]},{"header":{"parameterUnit":"m.s-1","parameterCategory":1,"la1":30.2991,"la2":30.254,"lo1":-89.0895,"lo2":-89.0444,"dy":0.0017,"dx":0.0017,"nx":28,"ny":28,"refTime":"2025-04-01T21:00:00:Z","depth":0,"parameterNumber":3,"parameterNumberName":"V-component_of_WINDS"},"data":[0,0,0,0,0,0,0,0,0,0,0,0,0,0,0,0,0,0,0,0,0,0,0,0,0,0,0,0,0,0,0,0,0,0,0,0,0,0,0,0,0,0,0,0,0,0,0,0,0,0,0,0,0,0,0,0,0,0,3.6111,3.6112,0,3.6212,3.6213,3.6214,3.6232,3.6231,3.623,3.6229,3.6331,3.6334,3.6338,0,0,0,0,0,0,0,0,0,0,0,0,0,3.5933,3.5936,3.6111,3.6112,3.6113,3.6212,3.6213,3.6214,3.6232,3.6231,3.623,3.6229,3.633,3.6334,3.6338,0,0,0,0,0,0,0,0,0,0,0,0,0,3.6019,3.5937,3.6111,3.6134,3.6137,3.6211,3.6213,3.6215,3.6232,3.6231,3.623,3.6228,3.6328,3.6333,3.6338,3.6396,0,0,3.6354,3.6357,0,0,0,0,0,0,0,0,3.6014,3.6026,3.6129,3.6133,3.6136,3.6208,3.6187,3.6275,3.6233,3.6196,3.6229,3.6228,3.6291,3.6299,3.6321,3.6401,3.6405,3.6355,3.6358,3.636,3.6362,0,0,0,0,0,0,0,3.6008,3.6022,3.6151,3.6131,3.6135,3.6139,3.615,3.6204,3.6249,3.6199,3.6201,3.6212,3.6292,3.6316,3.6323,3.6406,3.6355,3.6359,3.6363,3.6365,3.6541,3.6542,0,0,0,0,0,0,3.5998,3.6016,3.6148,3.6154,3.6071,3.6144,3.6156,3.6186,3.6249,3.6257,3.6213,3.6213,3.6307,3.6317,3.6327,3.64,3.636,3.6365,3.6368,3.6539,3.6541,3.6543,0,0,0,0,0,0,3.5994,3.601,3.6143,3.6086,3.6103,3.6148,3.6182,3.6189,3.6212,3.626,3.6267,3.6229,3.6307,3.6319,3.6379,3.6404,3.6367,3.6372,3.6537,3.654,3.6542,3.6545,0,0,0,0,0,0,3.5989,3.6008,3.6031,3.6086,3.6106,3.6194,3.6183,3.6192,3.6221,3.6222,3.6276,3.6284,3.6307,3.6371,3.6384,3.641,3.6376,3.6535,3.6538,3.6541,3.6543,3.6547,3.6551,0,0,0,0,0,3.5983,3.6027,3.6032,3.6047,3.6135,3.6196,3.6207,3.6233,3.6223,3.6246,3.6277,3.6282,3.6399,3.6377,3.6392,3.642,3.6534,3.6538,3.6541,3.6541,3.6547,3.6551,0,0,0,0,0,0,3.5972,3.6034,3.6041,3.6104,3.6145,3.6199,3.6228,3.6237,3.6281,3.6279,3.6309,3.6321,3.638,3.6405,3.6381,3.648,3.6466,3.6472,3.6461,3.6466,3.647,3.6463,3.6381,0,0,0,0,0,3.5977,3.6022,3.6073,3.6124,3.6144,3.6183,3.621,3.6227,3.627,3.6287,3.6322,3.6363,3.6409,3.6439,3.6484,3.6547,3.656,3.6573,3.6577,3.658,3.6586,3.6623,3.663,3.6554,3.6554,3.6554,0,0,3.5988,3.6027,3.6053,3.6123,3.6157,3.6202,3.6197,3.6245,3.628,3.6294,3.6354,3.6381,3.6428,3.6491,3.652,3.6514,3.6609,3.6584,3.6586,3.6591,3.6627,3.6634,3.664,3.6557,3.6556,3.6556,0,0,3.6031,3.6065,3.6112,3.6146,3.6197,3.6223,3.6234,3.6288,3.6307,3.6367,3.6379,3.642,3.6498,3.6533,3.656,3.6618,3.6625,3.6632,3.6653,3.6688,3.6694,3.67,3.6722,3.6729,3.6637,3.6637,3.6637,0,3.6038,3.6108,3.6135,3.6183,3.6214,3.623,3.6279,3.631,3.6373,3.6394,3.6386,3.6486,3.652,3.6591,3.6606,3.6627,3.6641,3.6626,3.6691,3.6697,3.6703,3.6724,3.6732,3.6638,3.6638,3.6638,3.6638,0,3.6114,3.6162,3.6194,3.6256,3.629,3.6338,3.6373,3.6404,3.6418,3.6444,3.6506,3.6546,3.6601,3.6619,3.6632,3.6693,3.6688,3.6685,3.6672,3.671,3.6731,3.6739,3.6639,3.6638,3.6638,3.6638,0,0,3.6153,3.6231,3.6242,3.6271,3.633,3.6367,3.6416,3.647,3.6497,3.654,3.6583,3.6649,3.6648,3.668,3.6697,3.6728,3.6774,3.6722,3.6724,3.6732,3.6845,3.6847,3.6856,3.6778,3.678,3.6781,3.6841,0,3.6205,3.6293,3.632,3.6394,3.644,3.6457,3.65,3.654,3.6566,3.6609,3.6637,3.6685,3.6679,3.6698,3.673,3.6761,3.6797,3.6757,3.6819,3.682,3.6807,3.6866,3.6869,3.6923,3.6849,3.685,3.6851,0,3.6276,3.6322,3.6402,3.6456,3.6476,3.6514,3.6567,3.6607,3.6654,3.6671,3.6706,3.6722,3.6774,3.6757,3.683,3.6802,3.6829,3.6848,3.6851,3.6858,3.6839,3.6877,3.6941,3.6949,3.6864,3.6863,3.6862,0,3.6299,3.6381,3.6439,3.6463,3.6528,3.6554,3.6582,3.6628,3.6659,3.6705,3.6726,3.6776,3.6804,3.6843,3.6872,3.6856,3.6942,3.6927,3.6958,3.6958,3.6976,3.6975,3.7047,3.6991,3.6991,3.6991,3.6991,0,3.6355,3.6403,3.6451,3.6487,3.6542,3.6572,3.6625,3.6654,3.6694,3.6736,3.6753,3.6792,3.6827,3.6871,3.6893,3.6951,3.6963,3.6978,3.6984,3.6978,3.6976,3.6996,3.6994,3.6993,3.6993,3.6992,3.6992,0,3.639,3.6423,3.6489,3.6545,3.656,3.6598,3.6646,3.6682,3.6709,3.6762,3.6776,3.6819,3.6871,3.6903,3.6969,3.6985,3.7049,3.7052,3.7033,3.7036,3.7066,3.7063,3.7155,3.7169,3.7102,3.7103,3.7103,0,3.6424,3.6461,3.6522,3.6552,3.6581,3.6628,3.6661,3.6692,3.6725,3.6782,3.6811,3.6865,3.691,3.6993,3.703,3.7081,3.7086,3.7115,3.7094,3.7087,3.7089,3.7087,3.7091,3.7118,3.7119,3.712,3.712,0,3.6481,3.6496,3.6543,3.6596,3.6634,3.6677,3.672,3.6743,3.6782,3.6818,3.6873,3.6908,3.6976,3.703,3.7085,3.7113,3.7124,3.7126,3.7136,3.7131,3.7119,3.7128,3.7044,3.7124,3.7124,3.7123,3.7123,3.7123,3.6518,3.6553,3.6601,3.6653,3.6689,3.6729,3.6766,3.6798,3.6844,3.6903,3.6918,3.6976,3.7023,3.7097,3.7127,3.7173,3.7168,3.7183,3.7187,3.719,3.7192,3.7111,3.7182,3.7182,3.7182,3.7182,3.7182,0,3.6577,3.6609,3.6657,3.6717,3.6758,3.6764,3.6812,3.6846,3.6897,3.694,3.6984,3.7048,3.71,3.7141,3.7195,3.7224,3.723,3.7237,3.7236,3.7243,3.7191,3.7178,3.7231,3.7231,3.7231,3.7231,3.7231,3.7231,3.6613,3.6673,3.6694,3.6773,3.6805,3.6862,3.6889,3.6926,3.6961,3.7032,3.7076,3.7102,3.7145,3.7202,3.7251,3.7262,3.7281,3.7288,3.7299,3.7251,3.7246,3.7241,3.7228,3.7291,3.7291,3.7347,3.7348,3.7348]}]]